Ana Sayfa
METAR-TAF:

METAR-TAF

Havaalanları :

Indiana County Airport (Jimmy Stewart Field)

Indiana, Pensilvanya, Amerika Birleşik Devletleri

Enlem: 40-38N, Boylam: 079-06W, yükseklik: 429 m

Güncel hava durumu gözlemi

Rapor saat 03:15 UTC de 14 dakika önce yapıldı.
Rüzgar batı/güneybatıdan 4 kt
Sıcaklık 12°C
Nem 94%
Basınç 1019 hPa
Görüş mesafesi: 16.1 km
12000 ft yükseklikte parçalı bulutlu

METAR: KIDI 070315Z AUTO 24004KT 10SM SCT120 12/11 A3008 RMK A01

Saat: 23:29 (03:29 UTC)


TAF: eksik

4.000'den fazla havaalanı için hava durumu gözlemleri ve tahminleri (METAR ve TAF raporları).

Kullanılabilir istasyonlar harita üzerinde sarı ve kırmızı noktalarla gösterilir.

İstasyonun adını görmek için fareyi noktanın üzerinde gezdirin.

Sonrasında hava gözlem ve tahminlerini görmek için tıklayın.

Haritayı değiştirmek için: yaklaştırmak için siyah artı işaretli yeşil düğmeye ve uzaklaştırmak için de eksi işaretli düğmeye hızla tıklayın; bitişik haritalar için yeşil okları kullanın.


METAR-TAF: